contact:dominique.lefevre@mio.osupytheas.fr, maurice.libes@osupytheas.fr
Project:EMSO Ligure-ouest http://www.emso-fr.org/EMSO-France
Sensor Aquadopp, line 13 Serial AQD14315 
DOI : "https://doi.org/10.17882/74513; https://doi.org/10.17882/83244" 
Title:EMSO Ligure Ouest : Data ligne ALBATROSS capteur AQUADOPP - deploiement 2021
Id,Date,Profondeur,Latitude,Longitude,X_East,Y_North,Z_Up,Amplitude_X,Amplitude_Y,Amplitude_Z,Batterie,SoundSpeed,Heading,Pitch,Roll,Pressure,Temperature,Speed,Direction
, , m, degrees North, degrees East, m.s-1, m.s-1,m.s-1, 1, 1, 1, Volt, m.s-1, degree, degree, degree, dbar, degree_C, m.s-1, degree
07,2021-12-15T21:30:00,1500.0,42.79,6.0312,0.028,-0.006,0.001,53.0,54.0,54.0,12.5,1504.2,126.8,-0.2,-0.1,1472.786,13.14,0.028,102.1
07,2021-12-15T22:00:00,1500.0,42.79,6.0312,0.019,-0.016,-0.014,56.0,54.0,52.0,12.5,1504.2,127.1,-0.1,-0.2,1472.804,13.14,0.024,130.1
07,2021-12-15T22:30:00,1500.0,42.79,6.0312,0.014,0.002,-0.005,54.0,53.0,54.0,12.5,1504.2,137.2,-0.2,-0.3,1472.767,13.14,0.014,81.9
07,2021-12-15T23:00:00,1500.0,42.79,6.0312,0.01,0.005,0.007,51.0,52.0,53.0,12.5,1504.2,147.7,0.0,-0.1,1472.746,13.14,0.011,63.4
07,2021-12-15T23:30:00,1500.0,42.79,6.0312,0.014,0.011,-0.007,52.0,54.0,54.0,12.5,1504.2,150.2,-0.5,0.0,1472.77,13.14,0.017,51.8
07,2021-12-16T00:00:00,1500.0,42.79,6.0312,0.022,0.018,0.007,57.0,54.0,52.0,12.5,1504.2,149.5,0.3,-0.1,1472.746,13.14,0.028,50.7
07,2021-12-16T00:30:00,1500.0,42.79,6.0312,0.025,0.019,-0.003,55.0,54.0,52.0,12.5,1504.1,152.0,-0.4,-0.4,1472.721,13.13,0.031,52.8
07,2021-12-16T01:00:00,1500.0,42.79,6.0312,0.03,0.018,-0.008,53.0,54.0,55.0,12.5,1504.1,159.0,0.0,-0.2,1472.774,13.13,0.034,59.0
07,2021-12-16T01:30:00,1500.0,42.79,6.0312,0.032,0.025,0.01,52.0,54.0,52.0,12.5,1504.1,176.9,-0.5,-0.1,1472.802,13.13,0.04,52.0
07,2021-12-16T02:00:00,1500.0,42.79,6.0312,0.004,0.041,0.009,53.0,55.0,54.0,12.5,1504.1,185.5,0.2,-0.3,1472.807,13.13,0.041,5.6
07,2021-12-16T02:30:00,1500.0,42.79,6.0312,0.043,0.012,0.014,54.0,54.0,50.0,12.5,1504.1,284.2,-0.4,-0.4,1472.843,13.13,0.044,74.4
07,2021-12-16T03:00:00,1500.0,42.79,6.0312,0.038,0.021,0.0,53.0,52.0,52.0,12.5,1504.1,316.0,0.3,-0.5,1472.852,13.13,0.043,61.1
07,2021-12-16T03:30:00,1500.0,42.79,6.0312,0.055,0.006,-0.004,52.0,53.0,53.0,12.5,1504.1,359.2,0.4,0.0,1472.861,13.13,0.055,83.8
07,2021-12-16T04:00:00,1500.0,42.79,6.0312,0.037,0.001,0.001,52.0,53.0,51.0,12.5,1504.1,357.8,-0.5,-0.1,1472.886,13.13,0.037,88.5
07,2021-12-16T04:30:00,1500.0,42.79,6.0312,0.042,0.015,0.0,52.0,52.0,52.0,12.5,1504.2,6.4,-0.5,-0.5,1472.91,13.14,0.044,70.4
07,2021-12-16T05:00:00,1500.0,42.79,6.0312,0.06,-0.003,0.004,52.0,51.0,53.0,12.5,1504.1,21.4,0.1,-0.2,1472.906,13.13,0.06,92.9
07,2021-12-16T05:30:00,1500.0,42.79,6.0312,0.052,-0.009,0.009,53.0,52.0,50.0,12.5,1504.1,23.0,-0.4,-0.3,1472.928,13.13,0.052,99.8
07,2021-12-16T06:00:00,1500.0,42.79,6.0312,0.05,-0.007,0.007,51.0,52.0,50.0,12.5,1504.1,29.2,-0.2,-0.2,1472.906,13.13,0.05,98.0
07,2021-12-16T06:30:00,1500.0,42.79,6.0312,0.042,-0.002,-0.004,50.0,52.0,52.0,12.5,1504.1,28.6,0.1,-0.3,1472.91,13.13,0.042,92.7
07,2021-12-16T07:00:00,1500.0,42.79,6.0312,0.051,0.0,-0.001,51.0,51.0,53.0,12.5,1504.1,34.0,0.1,-0.4,1472.929,13.13,0.051,90.0
07,2021-12-16T07:30:00,1500.0,42.79,6.0312,0.055,-0.008,-0.009,53.0,51.0,50.0,12.5,1504.1,39.2,0.1,-0.3,1472.901,13.13,0.055,98.3
07,2021-12-16T08:00:00,1500.0,42.79,6.0312,0.047,-0.007,-0.009,50.0,51.0,49.0,12.5,1504.2,46.0,-0.2,-0.3,1472.902,13.14,0.047,98.5
07,2021-12-16T08:30:00,1500.0,42.79,6.0312,0.047,0.0,0.008,51.0,54.0,53.0,12.5,1504.2,49.9,-0.3,-0.4,1472.9,13.14,0.047,90.0
07,2021-12-16T09:00:00,1500.0,42.79,6.0312,0.031,-0.001,0.022,49.0,53.0,52.0,12.5,1504.2,47.0,-0.2,-0.3,1472.878,13.14,0.031,91.8
07,2021-12-16T09:30:00,1500.0,42.79,6.0312,0.031,0.004,-0.009,48.0,53.0,52.0,12.5,1504.2,48.1,-0.3,-0.2,1472.877,13.14,0.031,82.7
07,2021-12-16T10:00:00,1500.0,42.79,6.0312,0.035,0.014,0.002,52.0,53.0,51.0,12.5,1504.2,51.6,-0.1,0.0,1472.843,13.14,0.037,68.2
07,2021-12-16T10:30:00,1500.0,42.79,6.0312,0.023,0.007,0.008,49.0,53.0,53.0,12.5,1504.2,61.4,-0.2,-0.3,1472.817,13.14,0.024,73.1
07,2021-12-16T11:00:00,1500.0,42.79,6.0312,0.028,0.005,-0.003,52.0,50.0,51.0,12.5,1504.2,68.5,0.1,-0.2,1472.829,13.14,0.028,79.9
07,2021-12-16T11:30:00,1500.0,42.79,6.0312,0.033,0.003,-0.003,52.0,51.0,51.0,12.5,1504.2,68.6,0.0,-0.1,1472.809,13.14,0.033,84.8
07,2021-12-16T12:00:00,1500.0,42.79,6.0312,0.028,0.016,-0.018,51.0,53.0,50.0,12.5,1504.2,66.8,-0.4,-0.1,1472.843,13.14,0.032,60.3
07,2021-12-16T12:30:00,1500.0,42.79,6.0312,0.033,0.018,-0.005,51.0,51.0,50.0,12.5,1504.2,74.8,0.1,-0.3,1472.809,13.14,0.037,61.4
07,2021-12-16T13:00:00,1500.0,42.79,6.0312,0.032,0.014,0.017,50.0,52.0,49.0,12.5,1504.2,68.4,0.1,-0.4,1472.821,13.14,0.034,66.4
07,2021-12-16T13:30:00,1500.0,42.79,6.0312,0.036,0.017,-0.019,53.0,49.0,50.0,12.5,1504.2,72.7,0.1,-0.1,1472.801,13.14,0.039,64.7
07,2021-12-16T14:00:00,1500.0,42.79,6.0312,0.03,0.019,0.012,50.0,52.0,51.0,12.5,1504.2,78.3,-0.3,-0.3,1472.821,13.14,0.035,57.7
07,2021-12-16T14:30:00,1500.0,42.79,6.0312,0.023,0.02,-0.004,52.0,50.0,51.0,12.5,1504.2,67.8,0.1,-0.3,1472.829,13.14,0.03,49.0
07,2021-12-16T15:00:00,1500.0,42.79,6.0312,0.008,0.029,0.0,49.0,50.0,50.0,12.5,1504.2,58.3,-0.2,-0.2,1472.866,13.14,0.03,15.4
07,2021-12-16T15:30:00,1500.0,42.79,6.0312,0.019,0.018,0.0,50.0,49.0,52.0,12.5,1504.2,41.4,0.1,-0.4,1472.869,13.14,0.026,46.5
07,2021-12-16T16:00:00,1500.0,42.79,6.0312,0.008,0.031,-0.002,47.0,50.0,51.0,12.5,1504.2,51.3,0.0,-0.4,1472.868,13.14,0.032,14.5
07,2021-12-16T16:30:00,1500.0,42.79,6.0312,0.024,0.022,0.006,49.0,51.0,50.0,12.5,1504.2,258.3,0.3,-0.3,1472.914,13.14,0.032,47.5
07,2021-12-16T17:00:00,1500.0,42.79,6.0312,0.028,0.014,0.0,52.0,51.0,50.0,12.5,1504.2,274.8,-0.4,-0.1,1472.918,13.14,0.031,63.4
07,2021-12-16T17:30:00,1500.0,42.79,6.0312,0.026,0.018,0.002,51.0,51.0,51.0,12.5,1504.2,278.7,0.2,-0.3,1472.938,13.14,0.031,55.3
07,2021-12-16T18:00:00,1500.0,42.79,6.0312,0.018,0.018,0.0,51.0,50.0,52.0,12.5,1504.1,279.4,-0.2,-0.2,1472.916,13.13,0.025,45.0
07,2021-12-16T18:30:00,1500.0,42.79,6.0312,0.032,0.013,0.02,50.0,50.0,54.0,12.5,1504.1,314.3,-0.2,-0.3,1472.913,13.13,0.034,67.9
07,2021-12-16T19:00:00,1500.0,42.79,6.0312,0.023,0.0,0.0,54.0,52.0,51.0,12.5,1504.1,310.2,0.2,-0.4,1472.898,13.13,0.023,90.0
07,2021-12-16T19:30:00,1500.0,42.79,6.0312,0.02,0.009,-0.011,49.0,50.0,48.0,12.5,1504.1,315.8,0.4,-0.3,1472.856,13.13,0.021,65.8
07,2021-12-16T20:00:00,1500.0,42.79,6.0312,0.026,0.011,-0.009,50.0,52.0,50.0,12.5,1504.1,334.5,0.1,-0.3,1472.835,13.13,0.028,67.1
07,2021-12-16T20:30:00,1500.0,42.79,6.0312,0.031,0.027,0.008,49.0,50.0,51.0,12.5,1504.1,334.9,0.2,-0.2,1472.867,13.13,0.041,48.9
07,2021-12-16T21:00:00,1500.0,42.79,6.0312,0.034,0.008,0.003,50.0,52.0,53.0,12.5,1504.1,344.3,-0.3,-0.1,1472.829,13.13,0.034,76.8
